| time (UTC) | temp F | wind direction | speed knots | gust knots | rain 1hr in | rain 24hr in | rain mn in | humidity % | barometer mb |
| 20260906010041 | 61 | 248 | 0.0 | 0.0 | 0.00 | 0.04 | 0.00 | 86 | 1022.0 |
| 20260906005011 | 61 | 248 | 0.0 | 0.0 | 0.00 | 0.04 | 0.00 | 87 | 1022.0 |
| 20260906004011 | 62 | 249 | 0.0 | 0.0 | 0.00 | 0.04 | 0.00 | 87 | 1022.0 |
| 20260906002941 | 62 | 270 | 0.0 | 0.0 | 0.00 | 0.04 | 0.00 | 87 | 1022.0 |
| 20260906001841 | 62 | 265 | 0.0 | 0.0 | 0.00 | 0.04 | 0.00 | 87 | 1022.0 |
| 20260906000811 | 62 | 255 | 0.0 | 0.0 | 0.00 | 0.04 | 0.00 | 87 | 1022.0 |
| 20260905235741 | 62 | 248 | 0.0 | 0.0 | 0.00 | 0.04 | 0.00 | 87 | 1022.0 |
| 20260905234741 | 62 | 268 | 0.0 | 0.0 | 0.00 | 0.04 | 0.00 | 88 | 1022.0 |
| 20260905233741 | 62 | 292 | 0.0 | 0.0 | 0.00 | 0.04 | 0.00 | 88 | 1022.0 |
| 20260905232741 | 62 | 265 | 0.0 | 0.0 | 0.00 | 0.04 | 0.00 | 88 | 1022.0 |
| 20260905231741 | 62 | 271 | 0.0 | 0.0 | 0.00 | 0.04 | 0.00 | 88 | 1022.0 |
| 20260905230711 | 62 | 259 | 0.0 | 0.0 | 0.00 | 0.04 | 0.00 | 88 | 1022.0 |
| 20260905225711 | 62 | 284 | 0.0 | 0.0 | 0.00 | 0.04 | 0.04 | 88 | 1022.0 |
| 20260905224641 | 62 | 274 | 0.0 | 0.0 | 0.00 | 0.04 | 0.04 | 88 | 1022.0 |
| 20260905223611 | 62 | 250 | 0.0 | 0.0 | 0.00 | 0.04 | 0.04 | 89 | 1022.0 |
| 20260905222611 | 61 | 250 | 0.0 | 0.0 | 0.00 | 0.04 | 0.04 | 89 | 1022.0 |
| 20260905221541 | 61 | 261 | 0.0 | 0.0 | 0.00 | 0.04 | 0.04 | 90 | 1022.0 |
| 20260905220511 | 61 | 256 | 0.0 | 0.0 | 0.00 | 0.04 | 0.04 | 89 | 1022.0 |
| 20260905215441 | 61 | 248 | 0.0 | 0.0 | 0.00 | 0.04 | 0.04 | 89 | 1022.0 |
| 20260905214411 | 61 | 243 | 0.0 | 0.0 | 0.00 | 0.04 | 0.04 | 88 | 1022.0 |
| 20260905213411 | 61 | 248 | 0.0 | 0.0 | 0.00 | 0.04 | 0.04 | 87 | 1022.0 |
| 20260905212411 | 62 | 252 | 0.0 | 0.0 | 0.00 | 0.04 | 0.04 | 87 | 1022.0 |
| 20260905211341 | 62 | 258 | 0.0 | 0.0 | 0.00 | 0.04 | 0.04 | 87 | 1022.0 |
| 20260905210341 | 62 | 248 | 0.0 | 0.0 | 0.00 | 0.04 | 0.04 | 86 | 1022.0 |
| 20260905205311 | 62 | 254 | 0.0 | 0.0 | 0.00 | 0.04 | 0.04 | 85 | 1022.0 |
| 20260905204311 | 63 | 249 | 0.0 | 0.0 | 0.00 | 0.04 | 0.04 | 84 | 1021.0 |
| 20260905203311 | 63 | 262 | 0.0 | 0.0 | 0.00 | 0.04 | 0.04 | 84 | 1022.0 |
| 20260905202241 | 63 | 292 | 0.0 | 0.0 | 0.00 | 0.04 | 0.04 | 83 | 1021.1 |
| 20260905201211 | 63 | 292 | 0.0 | 0.0 | 0.00 | 0.04 | 0.04 | 83 | 1021.0 |
| 20260905200141 | 63 | 291 | 0.0 | 0.0 | 0.00 | 0.04 | 0.04 | 83 | 1021.0 |
| 20260905195141 | 63 | 309 | 0.0 | 0.0 | 0.00 | 0.04 | 0.04 | 83 | 1020.0 |
| 20260905194111 | 63 | 294 | 0.0 | 0.0 | 0.00 | 0.04 | 0.04 | 83 | 1020.0 |
| 20260905193040 | 63 | 267 | 0.0 | 0.0 | 0.00 | 0.04 | 0.04 | 82 | 1021.0 |
| 20260905192010 | 64 | 270 | 0.0 | 0.0 | 0.00 | 0.04 | 0.04 | 82 | 1020.0 |
| 20260905191010 | 64 | 270 | 0.0 | 0.0 | 0.00 | 0.04 | 0.04 | 83 | 1020.0 |
| 20260905190010 | 64 | 287 | 0.0 | 0.0 | 0.00 | 0.04 | 0.04 | 82 | 1020.0 |
| 20260905184940 | 65 | 281 | 0.0 | 0.0 | 0.00 | 0.04 | 0.04 | 80 | 1020.0 |
| 20260905183910 | 65 | 294 | 0.0 | 0.0 | 0.00 | 0.04 | 0.04 | 80 | 1020.0 |
| 20260905182840 | 65 | 289 | 0.0 | 0.0 | 0.01 | 0.04 | 0.04 | 80 | 1021.0 |
| 20260905181810 | 66 | 286 | 0.0 | 0.0 | 0.01 | 0.04 | 0.04 | 79 | 1020.0 |
| 20260905180740 | 66 | 258 | 0.0 | 0.0 | 0.01 | 0.04 | 0.04 | 78 | 1020.0 |
| 20260905175710 | 66 | 259 | 0.0 | 0.0 | 0.04 | 0.04 | 0.04 | 78 | 1020.0 |
| 20260905174640 | 66 | 244 | 0.0 | 0.0 | 0.04 | 0.04 | 0.04 | 75 | 1019.0 |
| 20260905173540 | 67 | 257 | 0.0 | 0.0 | 0.04 | 0.04 | 0.04 | 73 | 1019.0 |
| 20260905172611 | 67 | 248 | 0.0 | 0.0 | 0.03 | 0.03 | 0.03 | 71 | 1019.0 |
| 20260905172540 | 67 | 248 | 0.0 | 0.0 | 0.03 | 0.03 | 0.03 | 71 | 1019.0 |
| 20260905171510 | 68 | 250 | 0.0 | 0.0 | 0.03 | 0.03 | 0.03 | 67 | 1019.0 |
| 20260905170510 | 69 | 248 | 0.0 | 0.0 | 0.02 | 0.02 | 0.02 | 62 | 1019.0 |
| 20260905165510 | 71 | 271 | 0.0 | 0.0 | 0.00 | 0.00 | 0.00 | 52 | 1019.0 |
| 20260905164440 | 72 | 285 | 0.0 | 0.0 | 0.00 | 0.00 | 0.00 | 46 | 1019.0 |
| 20260905163440 | 72 | 272 | 0.0 | 0.0 | 0.00 | 0.00 | 0.00 | 45 | 1019.0 |
| 20260905162440 | 72 | 290 | 0.0 | 0.0 | 0.00 | 0.00 | 0.00 | 44 | 1019.0 |
| 20260905161440 | 72 | 273 | 0.0 | 0.0 | 0.00 | 0.00 | 0.00 | 44 | 1019.0 |
| 20260905160440 | 72 | 264 | 0.0 | 0.0 | 0.00 | 0.00 | 0.00 | 44 | 1019.0 |
| 20260905155440 | 72 | 267 | 0.0 | 0.0 | 0.00 | 0.00 | 0.00 | 44 | 1019.0 |
| 20260905154410 | 72 | 288 | 0.0 | 0.0 | 0.00 | 0.00 | 0.00 | 44 | 1019.0 |
| 20260905153410 | 72 | 297 | 0.0 | 0.0 | 0.00 | 0.00 | 0.00 | 44 | 1019.0 |
| 20260905152340 | 72 | 311 | 0.0 | 0.0 | 0.00 | 0.00 | 0.00 | 43 | 1019.0 |
| 20260905151340 | 72 | 297 | 0.0 | 0.0 | 0.00 | 0.00 | 0.00 | 43 | 1019.0 |
| 20260905150310 | 73 | 298 | 0.0 | 0.0 | 0.00 | 0.00 | 0.00 | 42 | 1018.0 |
| 20260905145310 | 73 | 274 | 0.0 | 0.0 | 0.00 | 0.00 | 0.00 | 42 | 1018.0 |
| 20260905144240 | 73 | 300 | 0.0 | 0.0 | 0.00 | 0.00 | 0.00 | 41 | 1018.0 |
| 20260905143240 | 73 | 294 | 0.0 | 0.0 | 0.00 | 0.00 | 0.00 | 41 | 1019.0 |
| 20260905142210 | 74 | 321 | 0.0 | 0.0 | 0.00 | 0.00 | 0.00 | 40 | 1019.0 |
| 20260905141140 | 75 | 322 | 0.0 | 0.0 | 0.00 | 0.00 | 0.00 | 38 | 1019.0 |
| 20260905140110 | 76 | 323 | 0.0 | 0.0 | 0.00 | 0.00 | 0.00 | 36 | 1018.0 |
| 20260905135040 | 77 | 291 | 0.0 | 0.0 | 0.00 | 0.00 | 0.00 | 37 | 1019.0 |
| 20260905134010 | 79 | 321 | 0.0 | 0.0 | 0.00 | 0.00 | 0.00 | 34 | 1019.0 |
| 20260905132940 | 82 | 325 | 0.0 | 0.0 | 0.00 | 0.00 | 0.00 | 30 | 1018.0 |
| 20260905131940 | 83 | 315 | 0.0 | 0.0 | 0.00 | 0.00 | 0.00 | 30 | 1018.0 |
| 20260905130910 | 84 | 324 | 0.0 | 0.0 | 0.00 | 0.00 | 0.00 | 29 | 1018.0 |
| 20260905125910 | 85 | 330 | 0.0 | 0.0 | 0.00 | 0.00 | 0.00 | 29 | 1018.0 |
| 20260905124840 | 86 | 332 | 0.0 | 0.0 | 0.00 | 0.00 | 0.00 | 28 | 1018.0 |
| 20260905123809 | 87 | 327 | 0.0 | 0.0 | 0.00 | 0.00 | 0.00 | 28 | 1018.0 |
| 20260905122739 | 87 | 318 | 0.0 | 0.0 | 0.00 | 0.00 | 0.00 | 28 | 1018.0 |
| 20260905121709 | 87 | 314 | 0.0 | 0.0 | 0.00 | 0.00 | 0.00 | 28 | 1018.0 |
| 20260905120709 | 89 | 325 | 0.0 | 0.0 | 0.00 | 0.00 | 0.00 | 28 | 1018.0 |
| 20260905115639 | 89 | 333 | 0.0 | 0.0 | 0.00 | 0.00 | 0.00 | 28 | 1018.0 |
| 20260905114639 | 89 | 346 | 0.0 | 0.0 | 0.00 | 0.00 | 0.00 | 29 | 1018.0 |
| 20260905113639 | 89 | 327 | 0.0 | 0.0 | 0.00 | 0.00 | 0.00 | 29 | 1018.0 |
| 20260905112609 | 89 | 336 | 0.0 | 0.0 | 0.00 | 0.00 | 0.00 | 29 | 1018.0 |
| 20260905111539 | 88 | 325 | 0.0 | 0.0 | 0.00 | 0.00 | 0.00 | 30 | 1018.0 |
| 20260905110539 | 87 | 335 | 0.0 | 0.0 | 0.00 | 0.00 | 0.00 | 30 | 1018.0 |
| 20260905105539 | 87 | 349 | 0.0 | 0.0 | 0.00 | 0.00 | 0.00 | 30 | 1018.0 |
| 20260905104509 | 87 | 305 | 0.0 | 0.0 | 0.00 | 0.00 | 0.00 | 31 | 1018.0 |
| 20260905103509 | 86 | 345 | 0.0 | 0.0 | 0.00 | 0.00 | 0.00 | 31 | 1018.0 |
| 20260905102439 | 85 | 325 | 0.0 | 0.0 | 0.00 | 0.00 | 0.00 | 34 | 1018.0 |
| 20260905101409 | 85 | 354 | 0.0 | 0.0 | 0.00 | 0.00 | 0.00 | 35 | 1018.0 |
| 20260905100409 | 86 | 335 | 0.0 | 0.0 | 0.00 | 0.00 | 0.00 | 34 | 1018.0 |
| 20260905095339 | 88 | 320 | 0.0 | 0.0 | 0.00 | 0.00 | 0.00 | 33 | 1018.0 |
| 20260905094339 | 89 | 332 | 0.0 | 0.0 | 0.00 | 0.00 | 0.00 | 33 | 1017.0 |
| 20260905093339 | 90 | 327 | 0.0 | 0.0 | 0.00 | 0.00 | 0.00 | 32 | 1017.0 |
| 20260905092309 | 90 | 330 | 0.0 | 0.0 | 0.00 | 0.00 | 0.00 | 33 | 1017.0 |
| 20260905091309 | 89 | 311 | 0.0 | 0.0 | 0.00 | 0.00 | 0.00 | 33 | 1017.0 |
| 20260905090309 | 89 | 289 | 0.0 | 0.0 | 0.00 | 0.00 | 0.00 | 34 | 1017.0 |
| 20260905085239 | 89 | 295 | 0.0 | 0.0 | 0.00 | 0.00 | 0.00 | 34 | 1016.1 |
| 20260905084239 | 89 | 323 | 0.0 | 0.0 | 0.00 | 0.00 | 0.00 | 34 | 1016.0 |
| 20260905083209 | 89 | 319 | 0.0 | 0.0 | 0.00 | 0.00 | 0.00 | 34 | 1016.0 |
| 20260905082209 | 88 | 323 | 0.0 | 0.0 | 0.00 | 0.00 | 0.00 | 35 | 1016.8 |
| 20260905081139 | 87 | 285 | 0.0 | 0.0 | 0.00 | 0.00 | 0.00 | 35 | 1017.0 |
| 20260905080109 | 86 | 285 | 0.0 | 0.0 | 0.00 | 0.00 | 0.00 | 37 | 1016.0 |
| 20260905075109 | 85 | 261 | 0.0 | 0.0 | 0.00 | 0.00 | 0.00 | 39 | 1015.0 |
| 20260905074039 | 84 | 261 | 0.0 | 0.0 | 0.00 | 0.00 | 0.00 | 39 | 1015.0 |
| 20260905073009 | 83 | 257 | 0.0 | 0.0 | 0.00 | 0.00 | 0.00 | 40 | 1015.0 |
| 20260905072009 | 82 | 251 | 0.0 | 0.0 | 0.00 | 0.00 | 0.00 | 42 | 1015.0 |
| 20260905071009 | 81 | 227 | 0.0 | 0.0 | 0.00 | 0.00 | 0.00 | 43 | 1015.0 |
| 20260905065939 | 79 | 250 | 0.0 | 0.0 | 0.00 | 0.00 | 0.00 | 44 | 1015.0 |
| 20260905064939 | 78 | 222 | 0.0 | 0.0 | 0.00 | 0.00 | 0.00 | 45 | 1015.0 |
| 20260905063939 | 77 | 206 | 0.0 | 0.0 | 0.00 | 0.00 | 0.00 | 48 | 1015.0 |
| 20260905062909 | 75 | 243 | 0.0 | 0.0 | 0.00 | 0.00 | 0.00 | 49 | 1015.0 |
| 20260905061839 | 74 | 209 | 0.0 | 0.0 | 0.00 | 0.00 | 0.00 | 50 | 1015.0 |
| 20260905060839 | 73 | 240 | 0.0 | 0.0 | 0.00 | 0.00 | 0.00 | 52 | 1015.0 |
| 20260905055839 | 72 | 189 | 0.0 | 0.0 | 0.00 | 0.00 | 0.00 | 53 | 1014.0 |
| 20260905054809 | 72 | 160 | 0.0 | 0.0 | 0.00 | 0.00 | 0.00 | 53 | 1014.0 |
| 20260905053738 | 71 | 175 | 0.0 | 0.0 | 0.00 | 0.00 | 0.00 | 54 | 1014.0 |
| 20260905052708 | 70 | 173 | 0.0 | 0.0 | 0.00 | 0.00 | 0.00 | 54 | 1014.0 |
| 20260905051638 | 70 | 216 | 0.0 | 0.0 | 0.00 | 0.00 | 0.00 | 54 | 1014.0 |
| 20260905050508 | 69 | 201 | 0.0 | 0.0 | 0.00 | 0.00 | 0.00 | 54 | 1014.0 |
| 20260905045508 | 69 | 169 | 0.0 | 0.0 | 0.00 | 0.00 | 0.00 | 53 | 1014.0 |
| 20260905044438 | 69 | 161 | 0.0 | 0.0 | 0.00 | 0.00 | 0.00 | 53 | 1014.0 |
| 20260905043408 | 69 | 182 | 0.0 | 0.0 | 0.00 | 0.00 | 0.00 | 52 | 1014.0 |
| 20260905042338 | 69 | 198 | 0.0 | 0.0 | 0.00 | 0.00 | 0.00 | 52 | 1014.0 |
| 20260905041338 | 69 | 197 | 0.0 | 0.0 | 0.00 | 0.00 | 0.00 | 51 | 1013.0 |
| 20260905040308 | 69 | 191 | 0.0 | 0.0 | 0.00 | 0.00 | 0.00 | 51 | 1013.0 |
| 20260905035308 | 69 | 189 | 0.0 | 0.0 | 0.00 | 0.00 | 0.00 | 50 | 1013.0 |
| 20260905034238 | 69 | 161 | 0.0 | 0.0 | 0.00 | 0.00 | 0.00 | 49 | 1014.0 |
| 20260905033208 | 70 | 167 | 0.0 | 0.0 | 0.00 | 0.00 | 0.00 | 49 | 1014.0 |
| 20260905032138 | 70 | 185 | 0.0 | 0.0 | 0.00 | 0.00 | 0.00 | 48 | 1014.0 |
| 20260905031138 | 71 | 220 | 0.0 | 0.0 | 0.00 | 0.00 | 0.00 | 47 | 1014.0 |
| 20260905030108 | 71 | 177 | 0.0 | 0.0 | 0.00 | 0.00 | 0.00 | 47 | 1014.0 |
| 20260905025108 | 71 | 177 | 0.0 | 0.0 | 0.00 | 0.00 | 0.00 | 47 | 1014.0 |
| 20260905024038 | 71 | 220 | 0.0 | 0.0 | 0.00 | 0.00 | 0.00 | 47 | 1014.0 |
| 20260905023008 | 72 | 180 | 0.0 | 0.0 | 0.00 | 0.00 | 0.00 | 46 | 1014.0 |
| 20260905021938 | 72 | 165 | 0.0 | 0.0 | 0.00 | 0.00 | 0.00 | 46 | 1014.0 |
| 20260905020938 | 72 | 199 | 0.0 | 0.0 | 0.00 | 0.00 | 0.00 | 46 | 1014.0 |
| 20260905015908 | 72 | 169 | 0.0 | 0.0 | 0.00 | 0.00 | 0.00 | 46 | 1014.0 |
| 20260905014908 | 72 | 179 | 0.0 | 0.0 | 0.00 | 0.00 | 0.00 | 46 | 1014.0 |
| 20260905013908 | 72 | 169 | 0.0 | 0.0 | 0.00 | 0.00 | 0.00 | 46 | 1014.0 |
| 20260905012838 | 72 | 163 | 0.0 | 0.0 | 0.00 | 0.00 | 0.00 | 46 | 1014.0 |
| 20260905011808 | 72 | 180 | 0.0 | 0.0 | 0.00 | 0.00 | 0.00 | 46 | 1014.0 |
| 20260905010738 | 72 | 184 | 0.0 | 0.0 | 0.00 | 0.00 | 0.00 | 46 | 1014.9 |